Regional Weather Roundup
Issued by NWS

Home | Current Version | Previous Version | Graphics & Text | Print | Product List | Glossary On
Versions: 1 2 3 4 5 6 7 8 9 10 11 12 13 14 15 16 17 18 19 20 21 22 23 24 25 26 27 28 29 30 31 32 33 34 35 36 37 38 39 40 41 42 43 44 45 46 47 48 49 50
680
ASUS43 KTOP 060859
RWRKS

WEATHER ROUNDUP FOR KANSAS
NATIONAL WEATHER SERVICE GOODLAND KS
400 AM CDT FRI MAY 06 2016

NOTE:  "FAIR" INDICATES FEW OR NO CLOUDS BELOW 12,000 FEET WITH NO
SIGNIFICANT WEATHER AND/OR OBSTRUCTIONS TO VISIBILITY.

KSZ001>006-013>018-027>032-041>047-061000-
NORTHWEST KANSAS

CITY           SKY/WX    TMP DP  RH WIND       PRES   REMARKS
GOODLAND       CLOUDY    51  45  79 S13       30.01F
HAYS           CLOUDY    54  39  58 SW6       30.05S
HILL CITY      CLOUDY    58  45  62 CALM      30.03F
RUSSELL        CLEAR     55  45  68 S9        30.03S
$$

KSZ061>065-074>080-084>089-061000-
SOUTHWEST KANSAS

CITY           SKY/WX    TMP DP  RH WIND       PRES   REMARKS
DODGE CITY     CLOUDY    57  42  57 S14       30.05S
ELKHART          N/A     51  45  80 S13         N/A
GARDEN CITY    CLOUDY    53  45  74 S10       30.03F
GREAT BEND     CLEAR     52  43  71 S7        30.05S
LIBERAL        CLOUDY    57  45  62 E10       30.04S
$$

KSZ066>073-081>083-090>101-061000-
SOUTHEAST KANSAS

CITY           SKY/WX    TMP DP  RH WIND       PRES   REMARKS
CHANUTE        CLEAR     47  44  90 SE3       30.07R
COFFEYVILLE    CLEAR     49  47  93 CALM      30.07R
HUTCHINSON     CLOUDY    48  44  86 CALM      30.05S
MEDICINE LODGE   N/A     49  46  90 CALM      30.05S
NEWTON         CLEAR     54  39  58 S8        30.08S
PARSONS        CLEAR     48  47  96 CALM      30.08R
WICHITA INTL   PTCLDY    53  44  71 S3        30.05S
WICHITA JABRA  CLEAR     55  43  63 S5        30.05S
WINFIELD       CLEAR     51  45  79 E3        30.36F
$$

KSZ007>012-019>026-033>040-048>060-102>105-061000-
NORTHEAST KANSAS

CITY           SKY/WX    TMP DP  RH WIND       PRES   REMARKS
CONCORDIA      CLEAR     57  42  57 S13       30.03S
EMPORIA        CLEAR     50  45  83 S8        30.05S
LAWRENCE       CLEAR     45  44  97 CALM      30.05S
MANHATTAN      CLEAR     47  43  86 CALM      30.04S
OLATHE IND     CLEAR     50  42  74 S7        30.06S
OLATHE EXE     CLEAR     52  39  61 CALM      30.06R
SALINA         CLEAR     48  44  86 S5        30.04S
TOPEKA BILLARD CLEAR     51  48  89 CALM      30.05R
TOPEKA FORBES  CLEAR     50  45  83 SE3       30.04S
$$




USA.gov is the U.S. government's official web portal to all federal, state and local government web resources and services.